{"data":{"norad_id":64430,"intl_designator":"2025-129U","name":"STARLINK-34441","alt_names":[],"object_type":"PAYLOAD","status":"ACTIVE","operator":null,"country":"US","launch_date":"2025-06-17","launch_site_code":"AFWTR","launch_vehicle":null,"mission":null,"orbit_class":"UNKNOWN","rcs_meters":null,"size_class":null,"mass_kg":null,"dimensions":null,"purposes":["comms"],"wikipedia_slug":null,"has_3d_model":false,"image_url":null,"decayed_at":null,"tle_current":{"epoch":"2026-05-24T15:25:14.558304Z","epoch_age_seconds":105970,"freshness":"FRESH","line1":"1 64430U 25129U   26144.64252961  .00001910  00000+0  16776-3 0  9998","line2":"2 64430  70.0007 242.9765 0003586 270.7028  89.3720 14.98336991 52667","mean_motion":14.98336991,"eccentricity":0.0003586,"inclination_deg":70.0007,"raan_deg":242.9765,"arg_perigee_deg":270.7028,"mean_anomaly_deg":89.372,"bstar":0.00016776,"rev_number":5266,"period_min":96.106550705855,"perigee_km":569.54194051955,"apogee_km":574.52660335578,"semimajor_km":6950.1712719377,"source":"CELESTRAK","updated_at":"2026-05-25T13:38:20.443143Z"}}}